Regional Weather Roundup
Issued by NWS

Home | Current Version | Previous Version | Graphics & Text | Print | Product List | Glossary On
Versions: 1 2 3 4 5 6 7 8 9 10 11 12 13 14 15 16 17 18 19 20 21 22 23 24 25 26 27 28 29 30 31 32 33 34 35 36 37 38 39 40 41 42 43 44 45 46 47 48 49 50
000
ASUS45 KBOI 271410
RWRID

IDAHO REGIONAL WEATHER ROUNDUP
NATIONAL WEATHER SERVICE BOISE ID
800 AM MDT MON JUL 27 2015

NOTE: "FAIR" INDICATES FEW OR NO CLOUDS BELOW 12000 FEET
WITH NO SIGNIFICANT WEATHER AND/OR OBSTRUCTIONS TO VISIBILITY

IDZ012-014-271500-
SOUTHWEST IDAHO


CITY           SKY/WX    TMP DP  RH WIND       PRES   REMARKS
BOISE          MOSUNNY   56  41  57 NW8       30.01R
CALDWELL       MOSUNNY   57  36  44 W10       30.02R
MOUNTAIN HOME  MOSUNNY   55  42  60 NW15      29.99R
$$

IDZ016-017-271500-
SOUTHCENTRAL IDAHO


CITY           SKY/WX    TMP DP  RH WIND       PRES   REMARKS
BURLEY         CLOUDY    56  44  64 W23G32    29.98R
JEROME         LGT RAIN  51  48  89 SW14      29.99R
TWIN FALLS     LGT RAIN  53  47  79 SW14      30.00R
$$

IDZ019>023-271500-
SOUTHEAST IDAHO


CITY           SKY/WX    TMP DP  RH WIND       PRES   REMARKS
IDAHO FALLS    MOSUNNY   58  44  60 S23G30    29.92R
POCATELLO      SUNNY     59  41  51 SW26G35   29.96R
REXBURG        MOSUNNY   57  44  62 SW18G30   29.91R
$$

IDZ006-010-011-018-031-032-271500-
CENTRAL IDAHO MOUNTAINS


CITY           SKY/WX    TMP DP  RH WIND       PRES   REMARKS
MCCALL         PTSUNNY   50  40  68 NW9       30.00R
HAILEY         CLOUDY    55  45  67 N6        29.96F
STANLEY          N/A     45  41  86 CALM      30.04R
SALMON         CLOUDY    52  52 100 SE9       29.98R
CHALLIS        LGT RAIN  50  45  83 VRB3      29.96F
$$

IDZ002-004-006-007-026-271500-
NORTHERN IDAHO


CITY           SKY/WX    TMP DP  RH WIND       PRES   REMARKS
LEWISTON       SUNNY     62  40  44 E3        30.00R
LOWELL           N/A     60  51  72 CALM      29.99R
COEUR D`ALENE  PTSUNNY   54  45  71 W7        30.01R
MULLAN PASS    CLOUDY    43  36  76 VRB3      30.04R
$$



USA.gov is the U.S. government's official web portal to all federal, state and local government web resources and services.